Weather History for Joplin, MO

Change the Weather History Date:

Friday, November 23, 2012

  Actual Average Record
Temperature  
Mean Temperature 41 °F 45 °F  
Max Temperature 52 °F 55 °F 76 °F (1966)
Min Temperature 29 °F 35 °F 13 °F (1950)
Degree Days  
Heating Degree Days 24 20  
Month to date heating degree days 315 351  
Since 1 July heating degree days 639 603  
Cooling Degree Days 0 0  
Month to date cooling degree days 4 5  
Year to date cooling degree days 2106 1696  
Moisture  
Dew Point 25 °F    
Average Humidity 62    
Maximum Humidity 86    
Minimum Humidity 45    
Precipitation  
Precipitation 0.00 in 0.12 in 0.50 in (2014)
Month to date precipitation 1.31 2.94  
Year to date precipitation 36.96 42.89  
Snow  
Snow 0.00 in - - ()
Month to date snowfall 0.0  
Snow Depth 0.00 in    
Sea Level Pressure  
Sea Level Pressure 30.42 in    
Wind  
Wind Speed 8 mph (NW)    
Max Wind Speed 24 mph    
Max Gust Speed 30 mph    
Visibility 10 miles    
Events      
T = Trace of Precipitation, MM = Missing Value Source: NWS Daily Summary

Daily Weather History Graph

Daily Weather History Graph

Search for Another Location

Airport:

Trip Planner

Search our weather history database for the weather conditions in past years. The results will help you decide how hot, cold, wet, or windy it might be!

Date:

Astronomy

Nov. 23, 2012 Rise Set
Actual Time 7:05 AM CST 5:03 PM CST
Civil Twilight 6:37 AM CST 5:31 PM CST
Nautical Twilight 6:05 AM CST 6:03 PM CST
Astronomical Twilight 5:34 AM CST 6:34 PM CST
Moon 2:13 PM CST (11/23) 2:30 AM CST (11/23)
Length of Visible Light 10h 54m
Length of Day
9h 57m
Waxing Gibbous, 80% of the Moon is Illuminated
Nov 23
Waxing Gibbous
Nov 28
Full
Dec 6
Last Quarter
Dec 13
New
Dec 19
First Quarter

Hourly Weather History & Observations

Time (CST) Temp. Windchill Dew Point Humidity Pressure Visibility Wind Dir Wind Speed Gust Speed Precip Events Conditions
12:53 AM 48.0 °F - 37.0 °F 66% 30.26 in 10.0 mi North 6.9 mph - N/A   Clear
1:53 AM 45.0 °F 41.8 °F 36.0 °F 71% 30.29 in 10.0 mi North 5.8 mph - N/A   Overcast
2:53 AM 45.0 °F - 34.0 °F 65% 30.32 in 10.0 mi Calm Calm - N/A   Clear
3:53 AM 42.1 °F 40.2 °F 34.0 °F 73% 30.32 in 10.0 mi NW 3.5 mph - N/A   Clear
4:53 AM 41.0 °F 39.0 °F 34.0 °F 76% 30.34 in 10.0 mi NW 3.5 mph - N/A   Clear
5:53 AM 37.0 °F 32.4 °F 33.1 °F 86% 30.36 in 10.0 mi WNW 5.8 mph - N/A   Clear
6:53 AM 37.0 °F 30.4 °F 33.1 °F 86% 30.39 in 10.0 mi WNW 9.2 mph - N/A   Clear
7:53 AM 39.0 °F 30.3 °F 30.0 °F 70% 30.43 in 10.0 mi NW 16.1 mph - N/A   Clear
8:53 AM 39.0 °F 29.9 °F 25.0 °F 57% 30.45 in 10.0 mi NNW 17.3 mph 25.3 mph N/A   Clear
9:53 AM 37.9 °F 27.6 °F 19.0 °F 47% 30.48 in 10.0 mi NNW 20.7 mph 29.9 mph N/A   Clear
10:53 AM 39.9 °F 32.1 °F 21.0 °F 47% 30.49 in 10.0 mi NW 13.8 mph 20.7 mph N/A   Clear
11:53 AM 39.9 °F 32.9 °F 21.0 °F 47% 30.48 in 10.0 mi NNW 11.5 mph 21.9 mph N/A   Clear
12:53 PM 41.0 °F 33.5 °F 21.0 °F 45% 30.47 in 10.0 mi NW 13.8 mph 23.0 mph N/A   Clear
1:53 PM 41.0 °F 34.3 °F 21.9 °F 47% 30.46 in 10.0 mi NW 11.5 mph - N/A   Clear
2:53 PM 41.0 °F 34.3 °F 21.0 °F 45% 30.45 in 10.0 mi NW 11.5 mph - N/A   Clear
3:53 PM 39.9 °F 32.1 °F 21.0 °F 47% 30.45 in 10.0 mi NW 13.8 mph - N/A   Clear
4:53 PM 37.0 °F 30.4 °F 21.0 °F 52% 30.46 in 10.0 mi NW 9.2 mph - N/A   Clear
5:53 PM 34.0 °F 28.0 °F 21.9 °F 61% 30.46 in 10.0 mi NW 6.9 mph - N/A   Clear
6:53 PM 32.0 °F 26.4 °F 21.0 °F 64% 30.47 in 10.0 mi NW 5.8 mph - N/A   Clear
7:53 PM 30.9 °F 25.2 °F 19.9 °F 64% 30.47 in 6.0 mi NW 5.8 mph - N/A   Haze
8:53 PM 30.0 °F 24.1 °F 19.9 °F 66% 30.48 in 10.0 mi NW 5.8 mph - N/A   Clear
9:53 PM 28.9 °F 23.9 °F 19.9 °F 69% 30.47 in 10.0 mi WNW 4.6 mph - N/A   Clear
10:53 PM 28.9 °F - 19.0 °F 67% 30.46 in 10.0 mi Calm Calm - N/A   Clear
11:53 PM 28.9 °F - 19.0 °F 67% 30.47 in 10.0 mi Calm Calm - N/A   Clear